Location: Katzenstein
(51.7484°N, 10.2155°E)
Time: 01:25:05
(UTC+00:00)

Cosmos 841 Rocket - Pass Details

Date: 17 February 2020
Orbit: 746 x 773 km, 74.0° (Epoch: 09 April)

Event Time Altitude Azimuth Distance (km) Brightness Sun altitude
Rises 05:50:19 0° 337° (NNW) 3,225 6.4 -6.9°
Reaches altitude 10° 05:52:46 10° 343° (NNW) 2,300 5.7 -6.5°
Maximum altitude 05:57:50 49° 58° (ENE) 978 4.5 -5.8°
Drops below altitude 10° 06:02:55 10° 134° (SE) 2,303 7.1 -5.0°
Sets 06:05:21 0° 139° (SE) 3,229 7.7 -4.6°
